EW6329 Weather Reports


Display with metric or nautical units.
time (UTC)temp
F
wind
direction
speed
MPH
gust
MPH
rain 1hr
in
rain 24hr
in
rain mn
in
humidity
%
barometer
mb
20260905170021 94 276 0.0 2.0 0.00 0.00 0.00 54 1011.2
20260905164534 93 276 0.0 2.0 0.00 0.00 0.00 56 1011.4
20260905163047 92 276 0.0 2.0 0.00 0.00 0.00 58 1011.6
20260905161558 92 275 1.0 2.0 0.00 0.00 0.00 60 1011.7
20260905160007 90 276 0.0 2.0 0.00 0.00 0.00 64 1011.9
20260905154519 89 276 0.0 1.0 0.00 0.00 0.00 64 1011.8
20260905153031 88 276 0.0 2.0 0.00 0.00 0.00 67 1011.9
20260905151547 87 276 0.0 2.0 0.00 0.00 0.00 70 1011.9
20260905150054 85 276 0.0 2.0 0.00 0.00 0.00 71 1012.0
20260905144505 84 276 0.0 2.0 0.00 0.00 0.00 74 1011.9
20260905143015 83 276 0.0 2.0 0.00 0.00 0.00 77 1011.8
20260905141530 81 276 0.0 2.0 0.00 0.00 0.00 82 1011.9
20260905140043 79 275 0.0 2.0 0.00 0.00 0.00 85 1011.8
20260905134600 78 275 0.0 0.0 0.00 0.00 0.00 88 1011.8
20260905133005 77 277 0.0 0.0 0.00 0.00 0.00 89 1011.7
20260905131518 77 277 0.0 0.0 0.00 0.00 0.00 89 1011.7
20260905130028 76 277 0.0 0.0 0.00 0.00 0.00 89 1011.6
20260905124543 76 277 0.0 0.0 0.00 0.00 0.00 89 1011.7
20260905123053 76 277 0.0 0.0 0.00 0.00 0.00 88 1011.6
20260905121504 76 277 0.0 0.0 0.00 0.00 0.00 88 1011.4
20260905120017 76 277 0.0 0.0 0.00 0.00 0.00 88 1011.3
20260905114532 76 277 0.0 0.0 0.00 0.00 0.00 87 1011.3
20260905113045 76 277 0.0 0.0 0.00 0.00 0.00 87 1011.1
20260905111557 76 277 0.0 0.0 0.00 0.00 0.00 87 1011.0
20260905110007 77 277 0.0 0.0 0.00 0.00 0.00 86 1011.0
20260905104520 77 277 0.0 0.0 0.00 0.00 0.00 85 1010.9
20260905103034 77 277 0.0 0.0 0.00 0.00 0.00 85 1010.8
20260905101602 77 277 0.0 0.0 0.00 0.00 0.00 84 1010.7
20260905100100 77 277 0.0 0.0 0.00 0.00 0.00 83 1010.8
20260905094510 77 277 0.0 0.0 0.00 0.00 0.00 83 1010.8
20260905093024 78 277 0.0 0.0 0.00 0.00 0.00 83 1010.7
20260905091540 78 277 0.0 0.0 0.00 0.00 0.00 82 1010.7
20260905090051 78 277 0.0 0.0 0.00 0.00 0.00 82 1010.7
20260905084604 78 277 0.0 0.0 0.00 0.00 0.00 81 1010.6
20260905083019 79 277 0.0 0.0 0.00 0.00 0.00 81 1010.6
20260905081529 79 277 0.0 0.0 0.00 0.00 0.00 81 1010.8
20260905080040 79 277 0.0 0.0 0.00 0.00 0.00 80 1010.8
20260905074553 79 277 0.0 0.0 0.00 0.00 0.00 79 1010.7
20260905073003 80 277 0.0 0.0 0.00 0.00 0.00 78 1010.8
20260905071518 80 277 0.0 0.0 0.00 0.00 0.00 78 1010.9
20260905070030 80 277 0.0 0.0 0.00 0.00 0.00 78 1010.9
20260905064545 81 277 0.0 0.0 0.00 0.00 0.00 77 1010.9
20260905063059 81 277 0.0 0.0 0.00 0.00 0.00 76 1011.0
20260905061509 81 277 0.0 0.0 0.00 0.00 0.00 74 1010.9
20260905060020 82 277 0.0 0.0 0.00 0.00 0.00 74 1010.9
20260905054538 82 276 0.0 0.0 0.00 0.00 0.00 73 1010.8
20260905053045 83 276 0.0 0.0 0.00 0.00 0.00 72 1010.9
20260905051559 83 276 0.0 0.0 0.00 0.00 0.00 71 1010.9
20260905050009 83 276 0.0 0.0 0.00 0.00 0.00 71 1011.0
20260905044523 83 276 0.0 0.0 0.00 0.00 0.00 70 1011.0
20260905043035 83 276 0.0 0.0 0.00 0.00 0.00 70 1011.1
20260905041552 83 276 0.0 0.0 0.00 0.00 0.00 69 1011.0
20260905034519 84 276 0.0 0.0 0.00 0.00 0.00 70 1011.0
20260905033030 84 276 0.0 0.0 0.00 0.00 0.00 69 1011.1
20260905031539 85 276 0.0 0.0 0.00 0.00 0.00 69 1011.1
20260905030058 85 276 0.0 0.0 0.00 0.00 0.00 66 1011.2
20260905024501 86 276 0.0 0.0 0.00 0.00 0.00 66 1011.1
20260905023016 86 276 0.0 0.0 0.00 0.00 0.00 65 1011.0
20260905021527 87 276 0.0 1.0 0.00 0.00 0.00 63 1011.0
20260905020040 88 276 0.0 0.0 0.00 0.00 0.00 61 1010.9
20260905014558 89 276 0.0 0.0 0.00 0.00 0.00 58 1010.7
20260905013003 89 276 0.0 0.0 0.00 0.00 0.00 56 1010.7
20260905011516 90 276 0.0 0.0 0.00 0.00 0.00 55 1010.6
20260905010040 91 276 0.0 0.0 0.00 0.00 0.00 54 1010.4
20260905004547 92 276 0.0 0.0 0.00 0.00 0.00 52 1010.5
20260905003058 93 276 0.0 0.0 0.00 0.00 0.00 51 1010.4
20260905001509 93 276 0.0 0.0 0.00 0.00 0.00 50 1010.2
20260905000021 93 276 0.0 0.0 0.00 0.00 0.00 50 1010.1
20260904234530 93 276 0.0 0.0 0.00 0.00 0.00 50 1009.9
20260904233043 93 276 0.0 0.0 0.00 0.00 0.00 49 1009.9
20260904231553 94 276 0.0 1.0 0.00 0.00 0.00 49 1009.8
20260904230005 95 276 0.0 1.0 0.00 0.00 0.00 47 1009.9
20260904224522 95 276 0.0 0.0 0.00 0.00 0.00 48 1009.9
20260904223029 95 276 0.0 2.0 0.00 0.00 0.00 47 1009.9
20260904221541 97 276 0.0 2.0 0.00 0.00 0.00 41 1009.8
20260904220054 97 276 0.0 1.0 0.00 0.00 0.00 42 1009.9
20260904214513 97 276 0.0 2.0 0.00 0.00 0.00 44 1009.9
20260904213018 99 276 0.0 2.0 0.00 0.00 0.00 43 1010.0
20260904211531 98 276 0.0 2.0 0.00 0.00 0.00 44 1010.2
20260904210044 98 276 0.0 2.0 0.00 0.00 0.00 41 1010.4
20260904204556 98 276 0.0 2.0 0.00 0.00 0.00 44 1010.6
20260904203007 98 276 0.0 2.0 0.00 0.00 0.00 44 1010.9
20260904201519 98 276 0.0 2.0 0.00 0.00 0.00 41 1011.0
20260904200032 98 276 0.0 2.0 0.00 0.00 0.00 43 1011.3
20260904194545 97 276 0.0 3.0 0.00 0.00 0.00 45 1011.5
20260904193059 97 276 0.0 2.0 0.00 0.00 0.00 42 1011.9
20260904191509 97 276 0.0 3.0 0.00 0.00 0.00 45 1012.1
20260904190035 98 276 0.0 2.0 0.00 0.00 0.00 46 1012.1
20260904184536 97 276 0.0 2.0 0.00 0.00 0.00 46 1012.4
20260904183103 97 276 0.0 2.0 0.00 0.00 0.00 49 1012.5
20260904181559 97 276 0.0 2.0 0.00 0.00 0.00 48 1012.8
20260904180008 96 276 0.0 2.0 0.00 0.00 0.00 49 1013.0
20260904174522 95 269 0.0 2.0 0.00 0.00 0.00 50 1013.1
20260904173032 94 269 0.0 0.0 0.00 0.00 0.00 52 1013.3
20260904171545 94 269 0.0 2.0 0.00 0.00 0.00 54 1013.5